| time (UTC) | temp C | wind direction | speed KPH | gust KPH | rain 1hr cm | rain 24hr cm | rain mn cm | humidity % | barometer mb |
| 20260505065520 | 12 | 268 | 0.0 | 1.6 | 0.00 | 0.00 | 0.00 | 100 | 1015.6 |
| 20260505065015 | 12 | 268 | 0.0 | 6.4 | 0.00 | 0.00 | 0.00 | 100 | 1015.6 |
| 20260505064509 | 12 | 265 | 1.6 | 6.4 | 0.00 | 0.00 | 0.00 | 100 | 1015.5 |
| 20260505064001 | 12 | 300 | 1.6 | 4.8 | 0.00 | 0.00 | 0.00 | 100 | 1015.7 |
| 20260505063459 | 12 | 284 | 0.0 | 3.2 | 0.00 | 0.00 | 0.00 | 100 | 1015.7 |
| 20260505063020 | 12 | 232 | 1.6 | 6.4 | 0.00 | 0.00 | 0.00 | 100 | 1015.7 |
| 20260505063010 | 12 | 234 | 0.0 | 6.4 | 0.00 | 0.00 | 0.00 | 100 | 1015.7 |
| 20260505061938 | 12 | 271 | 0.0 | 3.2 | 0.00 | 0.00 | 0.00 | 100 | 1015.5 |
| 20260505061434 | 12 | 219 | 0.0 | 3.2 | 0.00 | 0.00 | 0.00 | 100 | 1015.6 |
| 20260505060935 | 12 | 254 | 0.0 | 3.2 | 0.00 | 0.00 | 0.00 | 100 | 1015.7 |
| 20260505060422 | 12 | 288 | 0.0 | 3.2 | 0.00 | 0.00 | 0.00 | 100 | 1015.7 |
| 20260505060202 | 12 | 303 | 0.0 | 4.8 | 0.00 | 0.00 | 0.00 | 100 | 1015.7 |
| 20260505055644 | 12 | 303 | 0.0 | 4.8 | 0.00 | 0.00 | 0.00 | 100 | 1015.6 |
| 20260505054929 | 12 | 355 | 0.0 | 0.0 | 0.00 | 0.00 | 0.00 | 100 | 1015.7 |
| 20260505054908 | 12 | 333 | 0.0 | 0.0 | 0.00 | 0.00 | 0.00 | 100 | 1015.7 |
| 20260505053850 | 12 | 355 | 0.0 | 1.6 | 0.00 | 0.00 | 0.00 | 100 | 1015.7 |
| 20260505053653 | 12 | 283 | 0.0 | 0.0 | 0.00 | 0.00 | 0.00 | 100 | 1015.8 |
| 20260505053402 | 12 | 355 | 0.0 | 1.6 | 0.00 | 0.00 | 0.00 | 100 | 1015.6 |
| 20260505052613 | 12 | 283 | 0.0 | 0.0 | 0.00 | 0.00 | 0.00 | 100 | 1015.6 |
| 20260505051828 | 12 | 283 | 0.0 | 1.6 | 0.00 | 0.00 | 0.00 | 100 | 1015.8 |
| 20260505051325 | 12 | 283 | 0.0 | 6.4 | 0.00 | 0.00 | 0.00 | 100 | 1015.8 |
| 20260505051051 | 12 | 283 | 0.0 | 6.4 | 0.00 | 0.00 | 0.00 | 100 | 1015.8 |
| 20260505050318 | 12 | 274 | 1.6 | 6.4 | 0.00 | 0.00 | 0.00 | 100 | 1015.8 |
| 20260505041250 | 12 | 257 | 0.0 | 3.2 | 0.00 | 0.00 | 0.00 | 100 | 1015.5 |
| 20260505040751 | 12 | 257 | 0.0 | 1.6 | 0.00 | 0.00 | 0.00 | 100 | 1015.4 |
| 20260505040533 | 12 | 257 | 0.0 | 4.8 | 0.00 | 0.00 | 0.00 | 100 | 1015.3 |
| 20260505040039 | 12 | 271 | 0.0 | 4.8 | 0.00 | 0.00 | 0.00 | 100 | 1015.3 |
| 20260505035527 | 12 | 276 | 0.0 | 1.6 | 0.00 | 0.00 | 0.00 | 100 | 1015.1 |
| 20260505034743 | 12 | 276 | 0.0 | 1.6 | 0.00 | 0.00 | 0.00 | 100 | 1015.1 |
| 20260505034242 | 12 | 276 | 0.0 | 4.8 | 0.00 | 0.00 | 0.00 | 100 | 1015.0 |
| 20260505033739 | 12 | 271 | 0.0 | 4.8 | 0.00 | 0.00 | 0.00 | 100 | 1014.9 |
| 20260505033237 | 12 | 293 | 0.0 | 0.0 | 0.00 | 0.00 | 0.00 | 100 | 1014.8 |
| 20260505032735 | 12 | 293 | 0.0 | 0.0 | 0.00 | 0.00 | 0.00 | 100 | 1014.7 |
| 20260505032234 | 12 | 293 | 0.0 | 3.2 | 0.00 | 0.00 | 0.00 | 100 | 1014.8 |
| 20260505031731 | 12 | 293 | 0.0 | 3.2 | 0.00 | 0.00 | 0.00 | 100 | 1014.8 |
| 20260505031231 | 13 | 296 | 0.0 | 3.2 | 0.00 | 0.00 | 0.00 | 100 | 1014.6 |
| 20260505030725 | 13 | 282 | 0.0 | 1.6 | 0.00 | 0.00 | 0.00 | 100 | 1014.4 |
| 20260505030219 | 13 | 282 | 0.0 | 3.2 | 0.00 | 0.00 | 0.00 | 100 | 1014.5 |
| 20260505025715 | 13 | 282 | 0.0 | 6.4 | 0.00 | 0.00 | 0.00 | 100 | 1014.5 |
| 20260505025454 | 13 | 282 | 0.0 | 6.4 | 0.00 | 0.00 | 0.00 | 100 | 1014.6 |
| 20260505024712 | 13 | 292 | 1.6 | 8.0 | 0.00 | 0.00 | 0.00 | 100 | 1014.6 |
| 20260505024209 | 13 | 292 | 3.2 | 8.0 | 0.00 | 0.00 | 0.00 | 100 | 1014.6 |
| 20260505023709 | 13 | 308 | 3.2 | 6.4 | 0.00 | 0.00 | 0.00 | 100 | 1014.6 |
| 20260505023447 | 13 | 241 | 3.2 | 6.4 | 0.00 | 0.00 | 0.00 | 100 | 1014.6 |
| 20260505022706 | 13 | 259 | 1.6 | 6.4 | 0.00 | 0.00 | 0.00 | 100 | 1014.6 |
| 20260505022205 | 13 | 250 | 1.6 | 4.8 | 0.00 | 0.00 | 0.00 | 100 | 1014.7 |
| 20260505021703 | 13 | 295 | 1.6 | 4.8 | 0.00 | 0.00 | 0.00 | 100 | 1014.8 |
| 20260505021204 | 13 | 319 | 1.6 | 8.0 | 0.00 | 0.00 | 0.00 | 100 | 1014.7 |
| 20260505020703 | 13 | 14 | 3.2 | 8.0 | 0.00 | 0.00 | 0.00 | 100 | 1014.7 |
| 20260505020204 | 13 | 321 | 1.6 | 8.0 | 0.00 | 0.00 | 0.00 | 100 | 1014.7 |
| 20260505015703 | 13 | 267 | 3.2 | 11.3 | 0.00 | 0.00 | 0.00 | 100 | 1014.6 |
| 20260505015205 | 13 | 267 | 3.2 | 11.3 | 0.00 | 0.00 | 0.00 | 100 | 1014.7 |
| 20260505014659 | 14 | 5 | 3.2 | 11.3 | 0.00 | 0.00 | 0.00 | 100 | 1014.7 |
| 20260505014159 | 14 | 250 | 3.2 | 8.0 | 0.00 | 0.00 | 0.00 | 100 | 1014.6 |
| 20260505013700 | 14 | 269 | 3.2 | 8.0 | 0.00 | 0.00 | 0.00 | 100 | 1014.6 |
| 20260505013159 | 14 | 288 | 3.2 | 9.7 | 0.00 | 0.00 | 0.00 | 100 | 1014.6 |
| 20260505012659 | 14 | 276 | 3.2 | 9.7 | 0.00 | 0.00 | 0.00 | 100 | 1014.5 |
| 20260505012200 | 14 | 275 | 1.6 | 6.4 | 0.00 | 0.00 | 0.00 | 100 | 1014.7 |
| 20260505011659 | 14 | 294 | 0.0 | 4.8 | 0.00 | 0.00 | 0.00 | 100 | 1014.8 |
| 20260505011159 | 14 | 287 | 1.6 | 6.4 | 0.00 | 0.00 | 0.00 | 100 | 1014.8 |
| 20260505010659 | 14 | 308 | 3.2 | 6.4 | 0.00 | 0.00 | 0.00 | 100 | 1014.9 |
| 20260505010229 | 15 | 286 | 1.6 | 9.7 | 0.00 | 0.00 | 0.00 | 100 | 1014.8 |
| 20260505010220 | 14 | 351 | 1.6 | 6.4 | 0.00 | 0.00 | 0.00 | 100 | 1014.9 |
| 20260505005158 | 15 | 288 | 1.6 | 9.7 | 0.00 | 0.00 | 0.00 | 100 | 1014.8 |
| 20260505004658 | 14 | 299 | 1.6 | 8.0 | 0.00 | 0.00 | 0.00 | 100 | 1014.8 |
| 20260505004441 | 14 | 315 | 1.6 | 4.8 | 0.00 | 0.00 | 0.00 | 100 | 1014.8 |
| 20260505003702 | 14 | 330 | 1.6 | 6.4 | 0.00 | 0.00 | 0.00 | 100 | 1014.9 |
| 20260505003200 | 14 | 261 | 4.8 | 12.9 | 0.00 | 0.00 | 0.00 | 100 | 1014.8 |
| 20260505002700 | 14 | 246 | 4.8 | 12.9 | 0.00 | 0.00 | 0.00 | 100 | 1015.0 |
| 20260505002201 | 15 | 325 | 3.2 | 11.3 | 0.00 | 0.00 | 0.00 | 100 | 1014.9 |
| 20260505001700 | 15 | 271 | 3.2 | 11.3 | 0.00 | 0.00 | 0.00 | 100 | 1015.0 |
| 20260505001159 | 15 | 283 | 3.2 | 9.7 | 0.00 | 0.00 | 0.00 | 100 | 1015.0 |
| 20260505000945 | 15 | 274 | 3.2 | 12.9 | 0.00 | 0.00 | 0.00 | 100 | 1015.0 |
| 20260505000157 | 15 | 336 | 3.2 | 12.9 | 0.00 | 0.00 | 0.00 | 100 | 1015.1 |
| 20260504235658 | 15 | 219 | 1.6 | 8.0 | 0.00 | 0.00 | 0.00 | 100 | 1015.1 |
| 20260504235157 | 15 | 276 | 3.2 | 11.3 | 0.00 | 0.00 | 0.00 | 100 | 1015.1 |
| 20260504234653 | 15 | 167 | 4.8 | 11.3 | 0.00 | 0.00 | 0.00 | 100 | 1015.1 |
| 20260504234556 | 16 | 283 | 3.2 | 11.3 | 0.00 | 0.00 | 0.00 | 100 | 1015.0 |
| 20260504234551 | 15 | 292 | 3.2 | 11.3 | 0.00 | 0.00 | 0.00 | 100 | 1015.1 |
| 20260504233709 | 16 | 262 | 3.2 | 11.3 | 0.00 | 0.00 | 0.00 | 100 | 1015.0 |
| 20260504232651 | 16 | 317 | 3.2 | 12.9 | 0.00 | 0.00 | 0.00 | 100 | 1015.0 |
| 20260504232429 | 16 | 267 | 1.6 | 12.9 | 0.00 | 0.00 | 0.00 | 100 | 1015.0 |
| 20260504231652 | 16 | 288 | 3.2 | 11.3 | 0.00 | 0.00 | 0.00 | 100 | 1015.0 |
| 20260504231149 | 15 | 264 | 4.8 | 11.3 | 0.00 | 0.00 | 0.00 | 100 | 1015.0 |
| 20260504230649 | 16 | 215 | 3.2 | 11.3 | 0.00 | 0.00 | 0.00 | 100 | 1015.0 |
| 20260504230146 | 16 | 245 | 4.8 | 14.5 | 0.00 | 0.00 | 0.00 | 100 | 1015.0 |
| 20260504225645 | 16 | 240 | 4.8 | 14.5 | 0.00 | 0.00 | 0.00 | 100 | 1014.9 |
| 20260504225426 | 16 | 309 | 4.8 | 14.5 | 0.00 | 0.00 | 0.00 | 100 | 1014.9 |
| 20260504224645 | 16 | 263 | 4.8 | 14.5 | 0.00 | 0.00 | 0.00 | 100 | 1014.9 |
| 20260504224421 | 16 | 279 | 4.8 | 14.5 | 0.00 | 0.00 | 0.00 | 100 | 1015.0 |
| 20260504223642 | 16 | 297 | 4.8 | 14.5 | 0.00 | 0.00 | 0.00 | 100 | 1015.0 |
| 20260504223422 | 16 | 270 | 3.2 | 14.5 | 0.00 | 0.00 | 0.00 | 100 | 1015.0 |
| 20260504222924 | 16 | 37 | 3.2 | 11.3 | 0.00 | 0.00 | 0.00 | 100 | 1015.0 |
| 20260504222140 | 16 | 190 | 4.8 | 11.3 | 0.00 | 0.00 | 0.00 | 100 | 1015.0 |
| 20260504221641 | 16 | 334 | 4.8 | 14.5 | 0.00 | 0.00 | 0.00 | 100 | 1015.1 |
| 20260504221142 | 16 | 305 | 4.8 | 14.5 | 0.00 | 0.00 | 0.00 | 100 | 1015.1 |
| 20260504220640 | 16 | 294 | 4.8 | 14.5 | 0.00 | 0.00 | 0.00 | 100 | 1015.2 |
| 20260504220420 | 16 | 291 | 4.8 | 14.5 | 0.00 | 0.00 | 0.00 | 100 | 1015.2 |
| 20260504215645 | 16 | 302 | 3.2 | 12.9 | 0.00 | 0.00 | 0.00 | 100 | 1015.1 |
| 20260504215527 | 16 | 321 | 3.2 | 12.9 | 0.00 | 0.00 | 0.00 | 100 | 1015.3 |
| 20260504215519 | 16 | 266 | 4.8 | 12.9 | 0.00 | 0.00 | 0.00 | 100 | 1015.2 |
| 20260504214136 | 16 | 259 | 1.6 | 9.7 | 0.00 | 0.00 | 0.00 | 100 | 1015.2 |
| 20260504213943 | 16 | 258 | 1.6 | 9.7 | 0.00 | 0.00 | 0.00 | 100 | 1015.4 |
| 20260504213125 | 16 | 240 | 1.6 | 9.7 | 0.00 | 0.00 | 0.00 | 100 | 1015.3 |
| 20260504212947 | 15 | 269 | 3.2 | 11.3 | 0.00 | 0.00 | 0.00 | 100 | 1015.3 |
| 20260504212937 | 16 | 242 | 3.2 | 6.4 | 0.00 | 0.00 | 0.00 | 100 | 1015.3 |
| 20260504211607 | 15 | 329 | 4.8 | 12.9 | 0.00 | 0.00 | 0.00 | 100 | 1015.5 |
| 20260504211333 | 15 | 33 | 4.8 | 16.1 | 0.00 | 0.00 | 0.00 | 100 | 1015.5 |
| 20260504211109 | 15 | 33 | 4.8 | 16.1 | 0.00 | 0.00 | 0.00 | 100 | 1015.5 |
| 20260504210555 | 15 | 241 | 4.8 | 16.1 | 0.00 | 0.00 | 0.00 | 100 | 1015.5 |
| 20260504210050 | 15 | 331 | 3.2 | 12.9 | 0.00 | 0.00 | 0.00 | 100 | 1015.5 |
| 20260504205542 | 15 | 261 | 3.2 | 11.3 | 0.00 | 0.00 | 0.00 | 100 | 1015.6 |
| 20260504205037 | 15 | 293 | 3.2 | 11.3 | 0.00 | 0.00 | 0.00 | 100 | 1015.5 |
| 20260504204531 | 15 | 241 | 3.2 | 9.7 | 0.00 | 0.00 | 0.00 | 100 | 1015.6 |
| 20260504204248 | 15 | 333 | 3.2 | 9.7 | 0.00 | 0.00 | 0.00 | 100 | 1015.6 |
| 20260504204041 | 15 | 333 | 3.2 | 9.7 | 0.00 | 0.00 | 0.00 | 100 | 1015.6 |
| 20260504203518 | 15 | 262 | 3.2 | 9.7 | 0.00 | 0.00 | 0.00 | 100 | 1015.7 |
| 20260504203020 | 15 | 338 | 3.2 | 11.3 | 0.00 | 0.00 | 0.00 | 100 | 1015.6 |
| 20260504203004 | 15 | 330 | 4.8 | 11.3 | 0.00 | 0.00 | 0.00 | 100 | 1015.6 |
| 20260504202510 | 15 | 330 | 4.8 | 11.3 | 0.00 | 0.00 | 0.00 | 100 | 1015.6 |
| 20260504202001 | 15 | 5 | 4.8 | 11.3 | 0.00 | 0.00 | 0.00 | 100 | 1015.8 |
| 20260504201455 | 15 | 235 | 3.2 | 11.3 | 0.00 | 0.00 | 0.00 | 100 | 1015.8 |
| 20260504201236 | 15 | 247 | 3.2 | 12.9 | 0.00 | 0.00 | 0.00 | 100 | 1015.8 |
| 20260504200727 | 15 | 324 | 3.2 | 12.9 | 0.00 | 0.00 | 0.00 | 100 | 1015.6 |
| 20260504195936 | 15 | 232 | 3.2 | 11.3 | 0.00 | 0.00 | 0.00 | 100 | 1015.7 |
| 20260504195430 | 15 | 269 | 3.2 | 11.3 | 0.00 | 0.00 | 0.00 | 100 | 1015.7 |
| 20260504195212 | 15 | 279 | 3.2 | 9.7 | 0.00 | 0.00 | 0.00 | 100 | 1015.6 |
| 20260504194418 | 16 | 284 | 1.6 | 8.0 | 0.00 | 0.00 | 0.00 | 100 | 1015.7 |
| 20260504194205 | 16 | 261 | 1.6 | 6.4 | 0.00 | 0.00 | 0.00 | 100 | 1015.6 |
| 20260504193406 | 15 | 108 | 1.6 | 6.4 | 0.00 | 0.00 | 0.00 | 100 | 1015.5 |
| 20260504192900 | 15 | 188 | 3.2 | 6.4 | 0.00 | 0.00 | 0.00 | 100 | 1015.6 |
| 20260504192405 | 15 | 323 | 3.2 | 6.4 | 0.00 | 0.00 | 0.00 | 100 | 1015.7 |
| 20260504191919 | 15 | 241 | 4.8 | 12.9 | 0.00 | 0.00 | 0.00 | 100 | 1015.6 |
| 20260504191905 | 15 | 327 | 3.2 | 11.3 | 0.00 | 0.00 | 0.00 | 100 | 1015.6 |
| 20260504191124 | 15 | 257 | 3.2 | 12.9 | 0.00 | 0.00 | 0.00 | 100 | 1015.6 |
| 20260504190331 | 15 | 279 | 1.6 | 11.3 | 0.00 | 0.00 | 0.00 | 100 | 1015.6 |
| 20260504185826 | 16 | 319 | 1.6 | 4.8 | 0.00 | 0.00 | 0.00 | 100 | 1015.6 |
| 20260504185319 | 16 | 264 | 1.6 | 3.2 | 0.00 | 0.00 | 0.00 | 100 | 1015.6 |
| 20260504184812 | 15 | 311 | 3.2 | 6.4 | 0.00 | 0.00 | 0.00 | 100 | 1015.6 |
| 20260504184307 | 15 | 312 | 1.6 | 6.4 | 0.00 | 0.00 | 0.00 | 100 | 1015.7 |
| 20260504183800 | 15 | 297 | 0.0 | 3.2 | 0.00 | 0.00 | 0.00 | 100 | 1015.6 |
| 20260504183254 | 15 | 89 | 1.6 | 6.4 | 0.00 | 0.00 | 0.00 | 100 | 1015.6 |
| 20260504182751 | 15 | 88 | 3.2 | 11.3 | 0.00 | 0.00 | 0.00 | 100 | 1015.5 |
| 20260504182250 | 15 | 173 | 1.6 | 11.3 | 0.00 | 0.00 | 0.00 | 100 | 1015.4 |
| 20260504181750 | 15 | 246 | 0.0 | 4.8 | 0.00 | 0.00 | 0.00 | 100 | 1015.4 |
| 20260504181248 | 15 | 212 | 0.0 | 3.2 | 0.00 | 0.00 | 0.00 | 100 | 1015.4 |
| 20260504180751 | 15 | 212 | 0.0 | 3.2 | 0.00 | 0.00 | 0.00 | 100 | 1015.4 |
| 20260504180246 | 15 | 189 | 0.0 | 3.2 | 0.00 | 0.00 | 0.00 | 100 | 1015.4 |
| 20260504180025 | 15 | 189 | 1.6 | 3.2 | 0.00 | 0.00 | 0.00 | 100 | 1015.3 |
| 20260504175240 | 15 | 87 | 1.6 | 3.2 | 0.00 | 0.00 | 0.00 | 100 | 1015.2 |
| 20260504175034 | 15 | 88 | 1.6 | 4.8 | 0.00 | 0.00 | 0.00 | 100 | 1015.4 |
| 20260504174517 | 15 | 57 | 0.0 | 4.8 | 0.00 | 0.00 | 0.00 | 100 | 1015.4 |
| 20260504174018 | 15 | 223 | 0.0 | 3.2 | 0.00 | 0.00 | 0.00 | 100 | 1015.4 |
| 20260504173243 | 15 | 226 | 0.0 | 3.2 | 0.00 | 0.00 | 0.00 | 100 | 1015.3 |
| 20260504172736 | 15 | 250 | 0.0 | 3.2 | 0.00 | 0.00 | 0.00 | 100 | 1015.2 |
| 20260504172514 | 15 | 311 | 0.0 | 3.2 | 0.00 | 0.00 | 0.00 | 100 | 1015.2 |
| 20260504171732 | 15 | 178 | 0.0 | 3.2 | 0.00 | 0.00 | 0.00 | 100 | 1015.2 |
| 20260504171230 | 15 | 96 | 0.0 | 0.0 | 0.00 | 0.00 | 0.00 | 100 | 1015.3 |
| 20260504170728 | 15 | 94 | 0.0 | 3.2 | 0.00 | 0.03 | 0.00 | 100 | 1015.2 |
| 20260504170228 | 15 | 0 | 1.6 | 6.4 | 0.00 | 0.03 | 0.00 | 100 | 1015.2 |
| 20260504160222 | 13 | 355 | 1.6 | 6.4 | 0.00 | 0.03 | 0.00 | 100 | 1015.0 |
| 20260504150721 | 12 | 308 | 1.6 | 12.9 | 0.00 | 0.03 | 0.00 | 100 | 1014.9 |
| 20260504150216 | 12 | 238 | 1.6 | 6.4 | 0.00 | 0.03 | 0.00 | 100 | 1014.9 |
| 20260504141145 | 12 | 298 | 0.0 | 4.8 | 0.00 | 0.03 | 0.00 | 100 | 1014.4 |
| 20260504140645 | 12 | 344 | 1.6 | 4.8 | 0.00 | 0.03 | 0.00 | 100 | 1014.4 |
| 20260504140144 | 12 | 258 | 1.6 | 8.0 | 0.00 | 0.03 | 0.00 | 100 | 1014.4 |
| 20260504130639 | 12 | 282 | 0.0 | 4.8 | 0.00 | 0.03 | 0.00 | 100 | 1013.8 |
| 20260504130140 | 12 | 323 | 0.0 | 4.8 | 0.00 | 0.03 | 0.00 | 100 | 1013.8 |
| 20260504110439 | 12 | 326 | 3.2 | 11.3 | 0.00 | 0.03 | 0.00 | 100 | 1013.9 |
| 20260504100327 | 12 | 305 | 1.6 | 6.4 | 0.00 | 0.03 | 0.00 | 100 | 1013.6 |
| 20260504081741 | 12 | 302 | 1.6 | 8.0 | 0.00 | 0.03 | 0.00 | 100 | 1013.6 |
| 20260504081246 | 12 | 340 | 1.6 | 8.0 | 0.00 | 0.03 | 0.00 | 100 | 1013.7 |
| 20260504081025 | 12 | 261 | 0.0 | 4.8 | 0.00 | 0.03 | 0.00 | 100 | 1013.5 |
| 20260504080246 | 12 | 203 | 0.0 | 4.8 | 0.00 | 0.03 | 0.00 | 100 | 1013.5 |
| 20260504070227 | 12 | 302 | 0.0 | 0.0 | 0.00 | 0.03 | 0.00 | 100 | 1013.4 |